BX2AEA-13 Weather Reports


time (UTC)temp
C
wind
direction
speed
KPH
gust
KPH
rain 1hr
cm
rain 24hr
cm
rain mn
cm
humidity
%
barometer
mb
20260504110421 33 90 0.0 3.2 0.00 0.00 0.00 27 1010.0
20260504081637 37 225 0.0 3.2 0.00 0.00 0.00 23 1008.5
20260504081050 37 270 0.0 3.2 0.00 0.00 0.00 23 1008.3
20260504080503 38 270 0.0 3.2 0.00 0.00 0.00 23 1008.1
20260504070126 39 315 0.0 1.6 0.00 0.00 0.00 24 1007.7
20260504050545 38 225 0.0 4.8 0.00 0.00 0.00 26 1008.7
20260504045958 38 315 0.0 4.8 0.00 0.00 0.00 26 1008.8
20260504045411 38 270 0.0 4.8 0.00 0.00 0.00 26 1008.7
20260504044824 38 225 0.0 3.2 0.00 0.00 0.00 26 1008.9
20260504044237 38 225 0.0 3.2 0.00 0.00 0.00 26 1008.9
20260504043650 38 270 0.0 4.8 0.00 0.00 0.00 26 1009.0
20260504043103 38 45 0.0 4.8 0.00 0.00 0.00 26 1008.9
20260504042516 38 0 0.0 3.2 0.00 0.00 0.00 27 1009.0
20260504041929 38 270 0.0 3.2 0.00 0.00 0.00 27 1009.1
20260504041342 37 270 0.0 3.2 0.00 0.00 0.00 27 1009.1
20260504040755 37 225 0.0 4.8 0.00 0.00 0.00 27 1009.1
20260504040208 37 0 0.0 4.8 0.00 0.00 0.00 27 1009.0
20260504035621 37 225 0.0 3.2 0.00 0.00 0.00 27 1009.2
20260504035034 37 270 0.0 4.8 0.00 0.00 0.00 27 1009.3
20260504034447 37 315 0.0 4.8 0.00 0.00 0.00 27 1009.6
20260504033900 37 135 0.0 4.8 0.00 0.00 0.00 27 1009.4
20260504033313 38 315 0.0 4.8 0.00 0.00 0.00 27 1009.5
20260504032726 38 0 0.0 3.2 0.00 0.00 0.00 27 1009.4
20260504032139 38 315 0.0 3.2 0.00 0.00 0.00 27 1009.5
20260504031552 38 225 0.0 4.8 0.00 0.00 0.00 27 1009.4
20260504031005 38 180 0.0 4.8 0.00 0.00 0.00 27 1009.3
20260504030418 38 270 0.0 4.8 0.00 0.00 0.00 28 1009.3
20260504025831 38 135 0.0 4.8 0.00 0.00 0.00 28 1009.4
20260504025244 38 0 0.0 3.2 0.00 0.00 0.00 29 1009.3
20260504024657 38 315 0.0 3.2 0.00 0.00 0.00 29 1009.3
20260504024110 37 270 0.0 3.2 0.00 0.00 0.00 29 1009.2
20260504023523 37 270 0.0 3.2 0.00 0.00 0.00 30 1009.2
20260504022936 37 315 0.0 3.2 0.00 0.00 0.00 30 1009.2
20260504022349 37 225 0.0 3.2 0.00 0.00 0.00 31 1009.1
20260504021802 36 0 0.0 3.2 0.00 0.00 0.00 32 1009.2
20260504021214 36 315 0.0 3.2 0.00 0.00 0.00 32 1009.0
20260504020627 36 315 0.0 3.2 0.00 0.00 0.00 32 1009.2
20260504020040 36 270 0.0 3.2 0.00 0.00 0.00 32 1009.2
20260504015453 35 135 0.0 4.8 0.00 0.00 0.00 32 1009.3
20260504014906 35 315 0.0 4.8 0.00 0.00 0.00 32 1009.4
20260504014319 35 0 0.0 4.8 0.00 0.00 0.00 32 1009.4
20260504013732 36 180 0.0 4.8 0.00 0.00 0.00 32 1009.3
20260504013145 36 270 0.0 4.8 0.00 0.00 0.00 32 1009.5
20260504012558 36 45 0.0 4.8 0.00 0.00 0.00 33 1009.3
20260504012011 36 225 0.0 4.8 0.00 0.00 0.00 33 1009.1
20260504011424 36 315 0.0 3.2 0.00 0.00 0.00 33 1009.1
20260504010837 36 225 0.0 3.2 0.00 0.00 0.00 34 1009.1
20260504010250 35 45 0.0 3.2 0.00 0.00 0.00 35 1009.2
20260504005703 35 270 0.0 3.2 0.00 0.00 0.00 35 1009.3
20260504005116 35 225 0.0 3.2 0.00 0.00 0.00 36 1009.3
20260504004529 35 45 0.0 3.2 0.00 0.00 0.00 36 1009.0
20260504003942 35 315 0.0 3.2 0.00 0.00 0.00 36 1009.2
20260504003355 35 45 0.0 4.8 0.00 0.00 0.00 37 1009.4
20260504002808 35 45 0.0 4.8 0.00 0.00 0.00 37 1009.1
20260504002221 35 270 0.0 4.8 0.00 0.00 0.00 38 1008.8
20260504001634 35 0 0.0 4.8 0.00 0.00 0.00 38 1008.6
20260504001047 35 315 0.0 3.2 0.00 0.00 0.00 39 1008.6
20260504000500 35 315 0.0 3.2 0.00 0.00 0.00 40 1008.3
20260503235913 35 225 0.0 3.2 0.00 0.00 0.00 42 1008.4
20260503235326 35 315 0.0 3.2 0.00 0.00 0.00 43 1008.4
20260503234739 35 225 0.0 3.2 0.00 0.00 0.00 44 1008.3
20260503234152 34 45 0.0 3.2 0.00 0.00 0.00 45 1008.2
20260503233605 33 0 0.0 3.2 0.00 0.00 0.00 46 1008.2
20260503233018 33 45 0.0 3.2 0.00 0.00 0.00 47 1008.1
20260503232431 32 315 0.0 3.2 0.00 0.00 0.00 48 1008.0
20260503231844 32 90 0.0 3.2 0.00 0.00 0.00 48 1008.0
20260503231257 32 0 0.0 1.6 0.00 0.00 0.00 47 1008.0
20260503230710 32 0 0.0 3.2 0.00 0.00 0.00 48 1008.3
20260503230123 32 315 0.0 3.2 0.00 0.00 0.00 49 1008.2
20260503225536 32 45 0.0 4.8 0.00 0.00 0.00 50 1008.2
20260503224949 32 0 0.0 4.8 0.00 0.00 0.00 50 1008.1
20260503224402 31 315 0.0 4.8 0.00 0.00 0.00 51 1008.2
20260503223814 31 0 0.0 4.8 0.00 0.00 0.00 51 1008.1
20260503223227 31 135 0.0 3.2 0.00 0.00 0.00 50 1008.1
20260503222640 31 45 0.0 3.2 0.00 0.00 0.00 50 1008.1
20260503222053 31 0 0.0 3.2 0.00 0.00 0.00 50 1008.1
20260503221506 31 315 0.0 1.6 0.00 0.00 0.00 50 1008.1
20260503220919 31 315 0.0 1.6 0.00 0.00 0.00 50 1008.1
20260503220332 31 45 0.0 1.6 0.00 0.00 0.00 50 1008.1
20260503215745 31 45 0.0 3.2 0.00 0.00 0.00 49 1008.3
20260503215158 31 90 0.0 3.2 0.00 0.00 0.00 49 1008.3
20260503214611 31 0 0.0 3.2 0.00 0.00 0.00 49 1008.3
20260503214024 31 270 0.0 1.6 0.00 0.00 0.00 49 1008.2
20260503213437 31 45 0.0 3.2 0.00 0.00 0.00 49 1008.2
20260503212850 31 135 0.0 3.2 0.00 0.00 0.00 49 1008.1
20260503212304 31 315 0.0 1.6 0.00 0.00 0.00 49 1008.0
20260503211716 31 315 0.0 3.2 0.00 0.00 0.00 49 1008.0
20260503211129 31 315 0.0 3.2 0.00 0.00 0.00 49 1008.1
20260503210542 31 45 0.0 3.2 0.00 0.00 0.00 49 1008.2
20260503205955 31 270 0.0 1.6 0.00 0.00 0.00 49 1008.1
20260503205408 31 45 0.0 3.2 0.00 0.00 0.00 49 1008.1
20260503204821 31 0 0.0 1.6 0.00 0.00 0.00 49 1008.0
20260503204234 31 315 0.0 1.6 0.00 0.00 0.00 49 1008.0
20260503203647 31 90 0.0 0.0 0.00 0.00 0.00 49 1008.1
20260503203100 31 0 0.0 1.6 0.00 0.00 0.00 49 1008.0
20260503202513 31 0 0.0 3.2 0.00 0.00 0.00 49 1008.0
20260503201926 31 270 0.0 3.2 0.00 0.00 0.00 49 1008.0
20260503201339 31 0 0.0 1.6 0.00 0.00 0.00 49 1008.2
20260503200752 31 315 0.0 1.6 0.00 0.00 0.00 49 1008.2
20260503200205 31 270 0.0 0.0 0.00 0.00 0.00 49 1008.0
20260503195618 31 0 0.0 1.6 0.00 0.00 0.00 49 1008.0
20260503195031 31 315 0.0 1.6 0.00 0.00 0.00 49 1007.8
20260503194444 31 90 0.0 3.2 0.00 0.00 0.00 50 1007.7
20260503193857 31 315 0.0 3.2 0.00 0.00 0.00 50 1007.8
20260503193310 31 0 0.0 1.6 0.00 0.00 0.00 50 1007.6
20260503192723 31 315 0.0 3.2 0.00 0.00 0.00 50 1007.6
20260503192136 31 315 0.0 3.2 0.00 0.00 0.00 50 1007.5
20260503191549 31 0 0.0 3.2 0.00 0.00 0.00 50 1007.6
20260503191001 32 315 0.0 1.6 0.00 0.00 0.00 50 1007.6
20260503190414 32 0 0.0 1.6 0.00 0.00 0.00 50 1007.6
20260503185827 32 315 0.0 1.6 0.00 0.00 0.00 50 1007.6
20260503185240 32 315 0.0 3.2 0.00 0.00 0.00 50 1007.6
20260503184653 32 315 0.0 3.2 0.00 0.00 0.00 50 1007.7
20260503184106 32 0 0.0 1.6 0.00 0.00 0.00 50 1007.7
20260503183519 32 315 0.0 1.6 0.00 0.00 0.00 50 1007.7
20260503182932 32 315 0.0 1.6 0.00 0.00 0.00 50 1007.6
20260503182345 32 45 0.0 1.6 0.00 0.00 0.00 50 1007.5
20260503181758 32 315 0.0 1.6 0.00 0.00 0.00 49 1007.6
20260503181211 32 270 0.0 0.0 0.00 0.00 0.00 49 1007.6
20260503180624 32 315 0.0 0.0 0.00 0.00 0.00 49 1007.6
20260503180037 32 315 0.0 3.2 0.00 0.00 0.00 49 1007.7
20260503175450 32 0 0.0 3.2 0.00 0.00 0.00 48 1007.7
20260503174903 32 315 0.0 3.2 0.00 0.00 0.00 48 1007.9
20260503174316 32 0 0.0 3.2 0.00 0.00 0.00 49 1007.8
20260503173729 32 0 0.0 0.0 0.00 0.00 0.00 49 1007.7
20260503173142 32 315 0.0 1.6 0.00 0.00 0.00 49 1007.8
20260503172555 32 315 0.0 1.6 0.00 0.00 0.00 49 1007.6
20260503172008 32 270 0.0 1.6 0.00 0.00 0.00 49 1007.9
20260503171421 32 45 0.0 3.2 0.00 0.00 0.00 50 1007.9
20260503170834 32 315 0.0 3.2 0.00 0.00 0.00 49 1007.8
20260503170247 32 0 0.0 3.2 0.00 0.00 0.00 49 1008.0
20260503150706 33 315 0.0 0.0 0.00 0.00 0.00 46 1007.7
20260503150119 33 315 0.0 0.0 0.00 0.00 0.00 46 1007.8
20260503131126 33 315 0.0 0.0 0.00 0.00 0.00 42 1006.5
20260503130539 34 315 0.0 0.0 0.00 0.00 0.00 42 1006.7
20260503120202 35 315 0.0 0.0 0.00 0.00 0.00 39 1006.6